| time (UTC) | temp F | wind direction | speed knots | gust knots | rain 1hr in | rain 24hr in | rain mn in | humidity % | barometer mb |
| 20260906211811 | 91 | 128 | 0.9 | 0.9 | 0.00 | 0.00 | 0.00 | 43 | 1017.4 |
| 20260906211307 | 91 | 129 | 1.7 | 2.6 | 0.00 | 0.00 | 0.00 | 42 | 1017.5 |
| 20260906210801 | 93 | 104 | 0.0 | 0.9 | 0.00 | 0.00 | 0.00 | 40 | 1017.6 |
| 20260906210301 | 91 | 95 | 0.0 | 0.9 | 0.00 | 0.00 | 0.00 | 42 | 1017.7 |
| 20260906205756 | 90 | 121 | 0.9 | 2.6 | 0.00 | 0.00 | 0.00 | 42 | 1017.8 |
| 20260906205253 | 89 | 45 | 0.9 | 1.7 | 0.00 | 0.00 | 0.00 | 44 | 1017.7 |
| 20260906204748 | 88 | 97 | 0.0 | 0.9 | 0.00 | 0.00 | 0.00 | 46 | 1017.7 |
| 20260906204247 | 91 | 100 | 0.9 | 1.7 | 0.00 | 0.00 | 0.00 | 43 | 1017.7 |
| 20260906203747 | 89 | 113 | 0.9 | 0.9 | 0.00 | 0.00 | 0.00 | 43 | 1018.0 |
| 20260906203242 | 91 | 85 | 1.7 | 2.6 | 0.00 | 0.00 | 0.00 | 42 | 1017.8 |
| 20260906202738 | 90 | 123 | 0.9 | 0.9 | 0.00 | 0.00 | 0.00 | 41 | 1018.0 |
| 20260906202238 | 89 | 73 | 0.0 | 0.9 | 0.00 | 0.00 | 0.00 | 40 | 1018.2 |
| 20260906201733 | 89 | 40 | 1.7 | 1.7 | 0.00 | 0.00 | 0.00 | 44 | 1018.1 |
| 20260906201227 | 89 | 73 | 1.7 | 1.7 | 0.00 | 0.00 | 0.00 | 44 | 1018.1 |
| 20260906200723 | 89 | 56 | 0.9 | 0.9 | 0.00 | 0.00 | 0.00 | 45 | 1018.3 |
| 20260906200219 | 89 | 72 | 0.9 | 0.9 | 0.00 | 0.00 | 0.00 | 46 | 1018.3 |
| 20260906195714 | 88 | 68 | 0.9 | 0.9 | 0.00 | 0.00 | 0.00 | 48 | 1018.3 |
| 20260906195210 | 88 | 84 | 0.0 | 0.0 | 0.00 | 0.00 | 0.00 | 48 | 1018.3 |
| 20260906194706 | 85 | 94 | 0.9 | 0.9 | 0.00 | 0.00 | 0.00 | 49 | 1018.2 |
| 20260906194201 | 86 | 123 | 1.7 | 1.7 | 0.00 | 0.00 | 0.00 | 49 | 1018.5 |
| 20260906193656 | 86 | 121 | 0.9 | 2.6 | 0.00 | 0.00 | 0.00 | 49 | 1018.4 |
| 20260906193151 | 87 | 98 | 0.9 | 0.9 | 0.00 | 0.00 | 0.00 | 47 | 1018.4 |
| 20260906192647 | 87 | 79 | 1.7 | 1.7 | 0.00 | 0.00 | 0.00 | 48 | 1018.8 |
| 20260906192146 | 86 | 81 | 0.9 | 1.7 | 0.00 | 0.00 | 0.00 | 49 | 1018.6 |
| 20260906191641 | 86 | 113 | 1.7 | 2.6 | 0.00 | 0.00 | 0.00 | 48 | 1018.8 |
| 20260906191140 | 86 | 112 | 0.9 | 1.7 | 0.00 | 0.00 | 0.00 | 48 | 1019.2 |
| 20260906190635 | 87 | 56 | 1.7 | 1.7 | 0.00 | 0.00 | 0.00 | 49 | 1019.2 |
| 20260906190130 | 85 | 97 | 0.0 | 0.0 | 0.00 | 0.00 | 0.00 | 50 | 1019.2 |
| 20260906185628 | 85 | 89 | 1.7 | 3.5 | 0.00 | 0.00 | 0.00 | 51 | 1019.5 |
| 20260906185128 | 85 | 135 | 0.9 | 0.9 | 0.00 | 0.00 | 0.00 | 49 | 1019.3 |
| 20260906184622 | 85 | 108 | 0.9 | 0.9 | 0.00 | 0.00 | 0.00 | 52 | 1019.8 |
| 20260906184118 | 85 | 114 | 1.7 | 2.6 | 0.00 | 0.00 | 0.00 | 53 | 1019.9 |
| 20260906183614 | 84 | 97 | 1.7 | 3.5 | 0.00 | 0.00 | 0.00 | 52 | 1019.7 |
| 20260906183110 | 84 | 69 | 2.6 | 2.6 | 0.00 | 0.00 | 0.00 | 50 | 1019.8 |
| 20260906182604 | 83 | 130 | 3.5 | 3.5 | 0.00 | 0.00 | 0.00 | 54 | 1019.9 |
| 20260906182101 | 85 | 106 | 0.9 | 1.7 | 0.00 | 0.00 | 0.00 | 52 | 1019.9 |
| 20260906181556 | 84 | 71 | 0.0 | 0.9 | 0.00 | 0.00 | 0.00 | 50 | 1020.0 |
| 20260906181052 | 85 | 113 | 2.6 | 2.6 | 0.00 | 0.00 | 0.00 | 50 | 1020.1 |
| 20260906180552 | 84 | 66 | 0.9 | 0.9 | 0.00 | 0.00 | 0.00 | 49 | 1020.3 |
| 20260906180050 | 85 | 70 | 1.7 | 1.7 | 0.00 | 0.00 | 0.00 | 52 | 1020.3 |
| 20260906175550 | 86 | 63 | 0.9 | 0.9 | 0.00 | 0.00 | 0.00 | 50 | 1020.4 |
| 20260906175044 | 83 | 105 | 0.0 | 0.0 | 0.00 | 0.00 | 0.00 | 51 | 1020.5 |
| 20260906174543 | 83 | 90 | 0.0 | 0.0 | 0.00 | 0.00 | 0.00 | 52 | 1020.8 |
| 20260906174038 | 83 | 98 | 1.7 | 1.7 | 0.00 | 0.00 | 0.00 | 52 | 1020.8 |
| 20260906173533 | 83 | 108 | 0.9 | 1.7 | 0.00 | 0.00 | 0.00 | 53 | 1020.8 |
| 20260906173029 | 82 | 100 | 0.9 | 0.9 | 0.00 | 0.00 | 0.00 | 53 | 1020.8 |
| 20260906172523 | 82 | 86 | 0.0 | 0.0 | 0.00 | 0.00 | 0.00 | 52 | 1020.6 |
| 20260906172019 | 80 | 99 | 0.0 | 0.0 | 0.00 | 0.00 | 0.00 | 57 | 1021.1 |
| 20260906171513 | 81 | 122 | 0.9 | 0.9 | 0.00 | 0.00 | 0.00 | 55 | 1021.3 |
| 20260906171009 | 80 | 85 | 0.9 | 1.7 | 0.00 | 0.00 | 0.00 | 55 | 1021.4 |
| 20260906170505 | 80 | 99 | 0.9 | 1.7 | 0.00 | 0.00 | 0.00 | 56 | 1021.3 |
| 20260906170003 | 80 | 81 | 0.0 | 0.0 | 0.00 | 0.00 | 0.00 | 56 | 1021.5 |
| 20260906165501 | 79 | 67 | 0.0 | 0.9 | 0.00 | 0.00 | 0.00 | 58 | 1021.4 |
| 20260906164955 | 79 | 125 | 0.0 | 0.9 | 0.00 | 0.00 | 0.00 | 57 | 1021.3 |
| 20260906164454 | 79 | 77 | 0.0 | 0.0 | 0.00 | 0.00 | 0.00 | 57 | 1021.3 |
| 20260906163951 | 78 | 62 | 0.9 | 1.7 | 0.00 | 0.00 | 0.00 | 59 | 1021.2 |
| 20260906163446 | 78 | 50 | 0.0 | 0.0 | 0.00 | 0.00 | 0.00 | 58 | 1021.4 |
| 20260906162944 | 77 | 81 | 0.9 | 0.9 | 0.00 | 0.00 | 0.00 | 61 | 1021.5 |
| 20260906162443 | 76 | 62 | 0.9 | 0.9 | 0.00 | 0.00 | 0.00 | 60 | 1021.5 |
| 20260906161938 | 77 | 64 | 0.0 | 0.0 | 0.00 | 0.00 | 0.00 | 61 | 1021.8 |
| 20260906161437 | 75 | 79 | 0.0 | 0.9 | 0.00 | 0.00 | 0.00 | 61 | 1021.9 |
| 20260906160937 | 76 | 83 | 0.9 | 0.9 | 0.00 | 0.00 | 0.00 | 62 | 1021.8 |
| 20260906160430 | 75 | 94 | 0.0 | 0.0 | 0.00 | 0.00 | 0.00 | 62 | 1021.5 |
| 20260906155928 | 75 | 67 | 0.0 | 0.9 | 0.00 | 0.00 | 0.00 | 62 | 1021.8 |
| 20260906155422 | 74 | 83 | 0.9 | 0.9 | 0.00 | 0.00 | 0.00 | 62 | 1021.5 |
| 20260906154919 | 75 | 81 | 0.9 | 0.9 | 0.00 | 0.00 | 0.00 | 62 | 1021.6 |
| 20260906154413 | 74 | 11 | 0.9 | 0.9 | 0.00 | 0.00 | 0.00 | 62 | 1021.6 |
| 20260906153912 | 73 | 27 | 0.9 | 0.9 | 0.00 | 0.00 | 0.00 | 65 | 1021.8 |
| 20260906153411 | 72 | 102 | 0.0 | 0.0 | 0.00 | 0.00 | 0.00 | 65 | 1021.8 |
| 20260906152906 | 73 | 71 | 0.9 | 0.9 | 0.00 | 0.00 | 0.00 | 66 | 1021.6 |
| 20260906152401 | 72 | 84 | 0.0 | 0.0 | 0.00 | 0.00 | 0.00 | 67 | 1022.0 |
| 20260906151900 | 71 | 33 | 1.7 | 1.7 | 0.00 | 0.00 | 0.00 | 67 | 1021.9 |
| 20260906151356 | 73 | 22 | 0.9 | 1.7 | 0.00 | 0.00 | 0.00 | 65 | 1022.1 |
| 20260906150851 | 72 | 79 | 0.0 | 0.0 | 0.00 | 0.00 | 0.00 | 66 | 1021.8 |
| 20260906150347 | 72 | 65 | 0.9 | 0.9 | 0.00 | 0.00 | 0.00 | 65 | 1022.0 |
| 20260906145846 | 72 | 76 | 0.0 | 0.0 | 0.00 | 0.00 | 0.00 | 65 | 1021.9 |
| 20260906145345 | 71 | 79 | 0.0 | 0.0 | 0.00 | 0.00 | 0.00 | 66 | 1021.9 |
| 20260906144840 | 72 | 61 | 0.9 | 0.9 | 0.00 | 0.00 | 0.00 | 67 | 1022.0 |
| 20260906144335 | 72 | 86 | 0.0 | 0.0 | 0.00 | 0.00 | 0.00 | 65 | 1022.0 |
| 20260906143835 | 71 | 70 | 0.9 | 1.7 | 0.00 | 0.00 | 0.00 | 67 | 1022.0 |
| 20260906143331 | 70 | 99 | 0.0 | 0.9 | 0.00 | 0.00 | 0.00 | 68 | 1022.1 |
| 20260906142826 | 70 | 89 | 0.0 | 0.0 | 0.00 | 0.00 | 0.00 | 68 | 1022.1 |
| 20260906142321 | 70 | 83 | 0.9 | 0.9 | 0.00 | 0.00 | 0.00 | 70 | 1022.0 |
| 20260906141820 | 70 | 6 | 1.7 | 2.6 | 0.00 | 0.00 | 0.00 | 68 | 1022.0 |
| 20260906141315 | 69 | 72 | 0.0 | 0.0 | 0.00 | 0.00 | 0.00 | 71 | 1021.9 |
| 20260906140813 | 68 | 58 | 0.9 | 1.7 | 0.00 | 0.00 | 0.00 | 72 | 1021.8 |
| 20260906140309 | 67 | 61 | 0.0 | 0.0 | 0.00 | 0.00 | 0.00 | 73 | 1021.8 |
| 20260906135807 | 66 | 46 | 0.9 | 0.9 | 0.00 | 0.00 | 0.00 | 75 | 1021.5 |
| 20260906135305 | 66 | 73 | 0.0 | 0.9 | 0.00 | 0.00 | 0.00 | 77 | 1021.9 |
| 20260906134757 | 66 | 93 | 0.9 | 1.7 | 0.00 | 0.00 | 0.00 | 77 | 1021.8 |
| 20260906134252 | 65 | 70 | 0.0 | 0.0 | 0.00 | 0.00 | 0.00 | 79 | 1021.6 |
| 20260906133748 | 65 | 57 | 1.7 | 1.7 | 0.00 | 0.00 | 0.00 | 79 | 1021.3 |
| 20260906133243 | 64 | 64 | 0.0 | 0.9 | 0.00 | 0.00 | 0.00 | 80 | 1021.6 |
| 20260906132738 | 64 | 58 | 0.0 | 0.0 | 0.00 | 0.00 | 0.00 | 80 | 1021.5 |
| 20260906132234 | 64 | 43 | 1.7 | 2.6 | 0.00 | 0.00 | 0.00 | 81 | 1021.5 |
| 20260906131730 | 64 | 51 | 0.9 | 0.9 | 0.00 | 0.00 | 0.00 | 82 | 1021.5 |
| 20260906131224 | 64 | 57 | 0.9 | 0.9 | 0.00 | 0.00 | 0.00 | 83 | 1021.5 |
| 20260906130720 | 63 | 56 | 0.0 | 0.0 | 0.00 | 0.00 | 0.00 | 84 | 1021.6 |
| 20260906130214 | 63 | 60 | 0.9 | 0.9 | 0.00 | 0.00 | 0.00 | 84 | 1021.4 |
| 20260906125713 | 63 | 73 | 0.0 | 0.0 | 0.00 | 0.00 | 0.00 | 85 | 1021.2 |
| 20260906125211 | 63 | 49 | 0.9 | 1.7 | 0.00 | 0.00 | 0.00 | 85 | 1021.3 |
| 20260906124707 | 63 | 44 | 0.9 | 1.7 | 0.00 | 0.00 | 0.00 | 86 | 1021.3 |
| 20260906124202 | 63 | 35 | 1.7 | 2.6 | 0.00 | 0.00 | 0.00 | 86 | 1021.5 |
| 20260906123701 | 63 | 56 | 0.0 | 0.9 | 0.00 | 0.00 | 0.00 | 86 | 1021.6 |
| 20260906123156 | 62 | 48 | 0.9 | 0.9 | 0.00 | 0.00 | 0.00 | 87 | 1021.5 |
| 20260906122655 | 62 | 52 | 0.0 | 0.0 | 0.00 | 0.00 | 0.00 | 88 | 1021.3 |
| 20260906122151 | 62 | 52 | 0.0 | 0.0 | 0.00 | 0.00 | 0.00 | 88 | 1021.6 |
| 20260906121648 | 62 | 52 | 0.0 | 0.0 | 0.00 | 0.00 | 0.00 | 88 | 1021.3 |
| 20260906121144 | 62 | 52 | 0.0 | 0.0 | 0.00 | 0.00 | 0.00 | 88 | 1021.1 |
| 20260906120639 | 62 | 52 | 0.0 | 0.0 | 0.00 | 0.00 | 0.00 | 88 | 1021.3 |
| 20260906120136 | 62 | 51 | 0.0 | 0.9 | 0.00 | 0.00 | 0.00 | 88 | 1021.1 |
| 20260906115631 | 63 | 52 | 0.0 | 0.0 | 0.00 | 0.00 | 0.00 | 88 | 1021.2 |
| 20260906115126 | 63 | 52 | 0.0 | 0.0 | 0.00 | 0.00 | 0.00 | 88 | 1021.1 |
| 20260906114620 | 63 | 53 | 0.0 | 0.0 | 0.00 | 0.00 | 0.00 | 87 | 1021.3 |
| 20260906114115 | 63 | 53 | 0.0 | 0.0 | 0.00 | 0.00 | 0.00 | 87 | 1021.4 |
| 20260906113615 | 63 | 53 | 0.0 | 0.0 | 0.00 | 0.00 | 0.00 | 87 | 1021.2 |
| 20260906113110 | 63 | 54 | 0.0 | 0.0 | 0.00 | 0.00 | 0.00 | 87 | 1021.1 |
| 20260906112609 | 63 | 56 | 0.0 | 0.0 | 0.00 | 0.00 | 0.00 | 87 | 1021.1 |
| 20260906112106 | 63 | 68 | 0.0 | 0.0 | 0.00 | 0.00 | 0.00 | 86 | 1021.3 |
| 20260906111605 | 63 | 60 | 0.0 | 0.0 | 0.00 | 0.00 | 0.00 | 86 | 1021.2 |
| 20260906111101 | 63 | 55 | 0.9 | 0.9 | 0.00 | 0.00 | 0.00 | 86 | 1021.1 |
| 20260906110600 | 64 | 73 | 0.0 | 0.0 | 0.00 | 0.00 | 0.00 | 86 | 1021.1 |
| 20260906110059 | 64 | 56 | 0.0 | 0.0 | 0.00 | 0.00 | 0.00 | 85 | 1020.9 |
| 20260906105554 | 64 | 59 | 0.0 | 0.9 | 0.00 | 0.00 | 0.00 | 85 | 1020.9 |
| 20260906105050 | 64 | 72 | 0.0 | 0.0 | 0.00 | 0.00 | 0.00 | 84 | 1020.9 |
| 20260906104549 | 64 | 65 | 0.9 | 0.9 | 0.00 | 0.00 | 0.00 | 84 | 1020.8 |
| 20260906104043 | 64 | 66 | 0.0 | 0.0 | 0.00 | 0.00 | 0.00 | 84 | 1021.2 |
| 20260906103542 | 64 | 56 | 0.0 | 0.0 | 0.00 | 0.00 | 0.00 | 83 | 1021.1 |
| 20260906103037 | 64 | 58 | 0.9 | 1.7 | 0.00 | 0.00 | 0.00 | 83 | 1021.2 |
| 20260906102537 | 65 | 70 | 0.0 | 0.0 | 0.00 | 0.00 | 0.00 | 83 | 1021.3 |
| 20260906102032 | 65 | 80 | 0.0 | 0.0 | 0.00 | 0.00 | 0.00 | 82 | 1021.2 |
| 20260906101526 | 65 | 115 | 1.7 | 2.6 | 0.00 | 0.00 | 0.00 | 82 | 1021.1 |
| 20260906101021 | 65 | 69 | 0.0 | 0.9 | 0.00 | 0.00 | 0.00 | 82 | 1020.9 |
| 20260906100517 | 66 | 87 | 1.7 | 2.6 | 0.00 | 0.00 | 0.00 | 81 | 1021.1 |
| 20260906100012 | 66 | 70 | 0.0 | 0.0 | 0.00 | 0.00 | 0.00 | 82 | 1020.9 |
| 20260906095507 | 66 | 86 | 1.7 | 2.6 | 0.00 | 0.00 | 0.00 | 81 | 1021.1 |
| 20260906095002 | 67 | 79 | 0.0 | 0.0 | 0.00 | 0.00 | 0.00 | 81 | 1020.7 |
| 20260906094501 | 67 | 29 | 0.9 | 1.7 | 0.00 | 0.00 | 0.00 | 80 | 1020.8 |
| 20260906093957 | 67 | 56 | 0.9 | 1.7 | 0.00 | 0.00 | 0.00 | 80 | 1020.7 |
| 20260906093453 | 67 | 94 | 1.7 | 2.6 | 0.00 | 0.00 | 0.00 | 80 | 1020.7 |
| 20260906092948 | 67 | 74 | 0.0 | 0.0 | 0.00 | 0.00 | 0.00 | 79 | 1020.5 |
| 20260906092448 | 67 | 89 | 1.7 | 1.7 | 0.00 | 0.00 | 0.00 | 79 | 1020.4 |
| 20260906091943 | 68 | 61 | 0.9 | 0.9 | 0.00 | 0.00 | 0.00 | 78 | 1020.4 |
| 20260906091439 | 68 | 93 | 0.0 | 0.0 | 0.00 | 0.00 | 0.00 | 77 | 1020.4 |
| 20260906090935 | 68 | 72 | 0.9 | 0.9 | 0.00 | 0.00 | 0.00 | 76 | 1020.4 |
| 20260906090430 | 68 | 66 | 0.9 | 0.9 | 0.00 | 0.00 | 0.00 | 75 | 1020.4 |
| 20260906085930 | 68 | 69 | 0.0 | 0.9 | 0.00 | 0.00 | 0.00 | 75 | 1020.3 |
| 20260906085429 | 68 | 68 | 0.0 | 0.9 | 0.00 | 0.00 | 0.00 | 75 | 1020.1 |
| 20260906084928 | 68 | 60 | 0.0 | 0.0 | 0.00 | 0.00 | 0.00 | 75 | 1020.4 |
| 20260906084423 | 68 | 81 | 0.0 | 0.0 | 0.00 | 0.00 | 0.00 | 75 | 1020.5 |
| 20260906083922 | 68 | 62 | 0.0 | 0.0 | 0.00 | 0.00 | 0.00 | 75 | 1020.5 |
| 20260906083418 | 68 | 60 | 0.0 | 0.0 | 0.00 | 0.00 | 0.00 | 74 | 1020.5 |
| 20260906082917 | 68 | 60 | 0.0 | 0.0 | 0.00 | 0.00 | 0.00 | 75 | 1020.5 |
| 20260906082413 | 68 | 59 | 0.0 | 0.0 | 0.00 | 0.00 | 0.00 | 75 | 1020.5 |
| 20260906081908 | 68 | 61 | 0.0 | 0.9 | 0.00 | 0.00 | 0.00 | 74 | 1020.4 |
| 20260906081404 | 68 | 37 | 0.0 | 0.9 | 0.00 | 0.00 | 0.00 | 74 | 1020.4 |
| 20260906080900 | 68 | 59 | 0.0 | 0.0 | 0.00 | 0.00 | 0.00 | 74 | 1020.4 |
| 20260906080356 | 68 | 15 | 0.9 | 1.7 | 0.00 | 0.00 | 0.00 | 74 | 1020.5 |
| 20260906075855 | 68 | 66 | 0.0 | 0.0 | 0.00 | 0.00 | 0.00 | 74 | 1020.4 |
| 20260906075350 | 68 | 41 | 1.7 | 2.6 | 0.00 | 0.00 | 0.00 | 74 | 1020.6 |
| 20260906074846 | 68 | 70 | 0.0 | 0.0 | 0.00 | 0.00 | 0.00 | 74 | 1020.5 |
| 20260906074340 | 68 | 57 | 0.0 | 0.0 | 0.00 | 0.00 | 0.00 | 74 | 1020.4 |
| 20260906073839 | 68 | 61 | 0.0 | 0.9 | 0.00 | 0.00 | 0.00 | 73 | 1020.5 |
| 20260906073334 | 68 | 62 | 0.0 | 0.0 | 0.00 | 0.00 | 0.00 | 73 | 1020.6 |
| 20260906072831 | 69 | 65 | 0.0 | 0.0 | 0.00 | 0.00 | 0.00 | 72 | 1020.5 |
| 20260906072326 | 69 | 70 | 0.0 | 0.9 | 0.00 | 0.00 | 0.00 | 72 | 1020.5 |
| 20260906071822 | 69 | 49 | 0.9 | 1.7 | 0.00 | 0.00 | 0.00 | 73 | 1020.4 |
| 20260906071321 | 69 | 65 | 0.0 | 0.0 | 0.00 | 0.00 | 0.00 | 72 | 1020.3 |
| 20260906070818 | 69 | 70 | 0.0 | 0.9 | 0.00 | 0.00 | 0.00 | 72 | 1020.3 |
| 20260906070314 | 69 | 63 | 0.0 | 0.0 | 0.00 | 0.00 | 0.00 | 73 | 1020.3 |
| 20260906065814 | 69 | 93 | 0.0 | 0.0 | 0.00 | 0.00 | 0.00 | 73 | 1020.3 |
| 20260906065309 | 69 | 56 | 0.9 | 0.9 | 0.00 | 0.00 | 0.00 | 73 | 1020.4 |
| 20260906064804 | 69 | 57 | 0.9 | 1.7 | 0.00 | 0.00 | 0.00 | 73 | 1020.3 |
| 20260906064300 | 69 | 58 | 0.0 | 0.9 | 0.00 | 0.00 | 0.00 | 72 | 1020.4 |
| 20260906063755 | 69 | 56 | 0.9 | 0.9 | 0.00 | 0.00 | 0.00 | 72 | 1020.3 |
| 20260906063251 | 69 | 59 | 0.0 | 0.0 | 0.00 | 0.00 | 0.00 | 73 | 1020.7 |
| 20260906062745 | 69 | 62 | 0.0 | 0.0 | 0.00 | 0.00 | 0.00 | 73 | 1020.7 |
| 20260906062244 | 69 | 70 | 0.0 | 0.0 | 0.00 | 0.00 | 0.00 | 73 | 1020.6 |
| 20260906061740 | 69 | 68 | 0.0 | 0.0 | 0.00 | 0.00 | 0.00 | 72 | 1020.5 |
| 20260906061237 | 69 | 70 | 0.0 | 0.0 | 0.00 | 0.00 | 0.00 | 71 | 1020.5 |
| 20260906060726 | 69 | 75 | 0.0 | 0.0 | 0.00 | 0.00 | 0.00 | 70 | 1020.4 |
| 20260906060224 | 69 | 47 | 1.7 | 1.7 | 0.00 | 0.00 | 0.00 | 70 | 1020.0 |
| 20260906055720 | 70 | 70 | 0.0 | 0.0 | 0.00 | 0.00 | 0.00 | 69 | 1019.9 |
| 20260906055215 | 70 | 86 | 0.0 | 0.0 | 0.00 | 0.00 | 0.00 | 68 | 1020.1 |
| 20260906054710 | 70 | 85 | 0.0 | 0.0 | 0.00 | 0.00 | 0.00 | 66 | 1020.0 |
| 20260906054210 | 71 | 58 | 0.0 | 0.9 | 0.00 | 0.00 | 0.00 | 65 | 1020.1 |
| 20260906053707 | 71 | 37 | 0.9 | 0.9 | 0.00 | 0.00 | 0.00 | 64 | 1020.0 |
| 20260906053201 | 71 | 43 | 0.9 | 1.7 | 0.00 | 0.00 | 0.00 | 64 | 1019.7 |
| 20260906052656 | 71 | 11 | 2.6 | 2.6 | 0.00 | 0.00 | 0.00 | 63 | 1020.0 |
| 20260906052153 | 71 | 36 | 1.7 | 2.6 | 0.00 | 0.00 | 0.00 | 61 | 1019.7 |
| 20260906051649 | 72 | 90 | 0.0 | 0.9 | 0.00 | 0.00 | 0.00 | 59 | 1019.7 |
| 20260906051149 | 72 | 52 | 0.9 | 1.7 | 0.00 | 0.00 | 0.00 | 57 | 1019.5 |
| 20260906050644 | 73 | 57 | 0.9 | 0.9 | 0.00 | 0.00 | 0.00 | 55 | 1019.7 |
| 20260906050139 | 73 | 46 | 0.0 | 0.9 | 0.00 | 0.00 | 0.00 | 54 | 1019.5 |
| 20260906045638 | 74 | 54 | 1.7 | 1.7 | 0.00 | 0.00 | 0.00 | 52 | 1019.6 |
| 20260906045133 | 74 | 66 | 0.9 | 0.9 | 0.00 | 0.00 | 0.00 | 51 | 1019.8 |
| 20260906044629 | 75 | 93 | 0.9 | 0.9 | 0.00 | 0.00 | 0.00 | 50 | 1019.6 |
| 20260906044124 | 75 | 68 | 0.0 | 0.0 | 0.00 | 0.00 | 0.00 | 48 | 1019.7 |
| 20260906043621 | 76 | 72 | 0.0 | 0.9 | 0.00 | 0.00 | 0.00 | 48 | 1019.5 |
| 20260906043116 | 75 | 54 | 0.0 | 0.9 | 0.00 | 0.00 | 0.00 | 48 | 1019.5 |
| 20260906042615 | 75 | 67 | 0.0 | 0.0 | 0.00 | 0.00 | 0.00 | 48 | 1019.5 |
| 20260906042109 | 75 | 66 | 0.0 | 0.0 | 0.00 | 0.00 | 0.00 | 48 | 1019.2 |
| 20260906041606 | 75 | 66 | 0.0 | 0.0 | 0.00 | 0.00 | 0.00 | 48 | 1019.2 |
| 20260906041100 | 75 | 66 | 0.0 | 0.0 | 0.00 | 0.00 | 0.00 | 47 | 1018.9 |
| 20260906040556 | 75 | 66 | 0.0 | 0.0 | 0.00 | 0.00 | 0.00 | 47 | 1019.0 |
| 20260906040051 | 76 | 65 | 0.0 | 0.0 | 0.00 | 0.00 | 0.00 | 46 | 1019.0 |
| 20260906035546 | 76 | 65 | 0.0 | 0.0 | 0.00 | 0.00 | 0.00 | 46 | 1019.1 |
| 20260906035042 | 76 | 78 | 0.0 | 0.0 | 0.00 | 0.00 | 0.00 | 45 | 1018.9 |
| 20260906034542 | 76 | 60 | 0.0 | 0.0 | 0.00 | 0.00 | 0.00 | 45 | 1018.9 |
| 20260906034037 | 76 | 68 | 0.0 | 0.0 | 0.00 | 0.00 | 0.00 | 44 | 1018.9 |
| 20260906033532 | 77 | 69 | 0.0 | 0.0 | 0.00 | 0.00 | 0.00 | 44 | 1018.6 |
| 20260906033027 | 77 | 64 | 0.0 | 0.0 | 0.00 | 0.00 | 0.00 | 42 | 1018.9 |
| 20260906032524 | 77 | 77 | 0.0 | 0.0 | 0.00 | 0.00 | 0.00 | 42 | 1019.1 |
| 20260906032019 | 78 | 73 | 0.0 | 0.0 | 0.00 | 0.00 | 0.00 | 41 | 1018.8 |
| 20260906031515 | 78 | 76 | 0.0 | 0.9 | 0.00 | 0.00 | 0.00 | 40 | 1018.9 |
| 20260906031009 | 78 | 76 | 0.0 | 0.0 | 0.00 | 0.00 | 0.00 | 39 | 1018.8 |
| 20260906030503 | 79 | 69 | 0.0 | 0.0 | 0.00 | 0.00 | 0.00 | 39 | 1018.8 |
| 20260906030003 | 79 | 353 | 0.9 | 1.7 | 0.00 | 0.00 | 0.00 | 39 | 1018.4 |
| 20260906025502 | 79 | 328 | 1.7 | 2.6 | 0.00 | 0.00 | 0.00 | 38 | 1018.3 |
| 20260906025001 | 80 | 71 | 0.0 | 0.0 | 0.00 | 0.00 | 0.00 | 38 | 1018.3 |
| 20260906024456 | 80 | 86 | 0.0 | 0.9 | 0.00 | 0.00 | 0.00 | 38 | 1018.2 |
| 20260906023956 | 80 | 69 | 0.0 | 0.0 | 0.00 | 0.00 | 0.00 | 38 | 1018.1 |
| 20260906023453 | 80 | 55 | 0.9 | 0.9 | 0.00 | 0.00 | 0.00 | 38 | 1018.2 |
| 20260906022953 | 81 | 28 | 3.5 | 5.2 | 0.00 | 0.00 | 0.00 | 37 | 1018.2 |
| 20260906022448 | 81 | 70 | 0.9 | 0.9 | 0.00 | 0.00 | 0.00 | 37 | 1018.2 |
| 20260906021943 | 82 | 332 | 1.7 | 2.6 | 0.00 | 0.00 | 0.00 | 36 | 1018.2 |
| 20260906021438 | 81 | 300 | 1.7 | 5.2 | 0.00 | 0.00 | 0.00 | 36 | 1018.2 |
| 20260906020938 | 81 | 64 | 0.0 | 0.9 | 0.00 | 0.00 | 0.00 | 36 | 1017.8 |
| 20260906020432 | 82 | 59 | 0.9 | 1.7 | 0.00 | 0.00 | 0.00 | 36 | 1018.0 |
| 20260906015927 | 82 | 67 | 0.0 | 0.9 | 0.00 | 0.00 | 0.00 | 36 | 1018.0 |
| 20260906015426 | 82 | 344 | 2.6 | 3.5 | 0.00 | 0.00 | 0.00 | 36 | 1017.7 |
| 20260906014926 | 82 | 54 | 0.9 | 1.7 | 0.00 | 0.00 | 0.00 | 36 | 1017.8 |
| 20260906014426 | 82 | 49 | 0.9 | 1.7 | 0.00 | 0.00 | 0.00 | 36 | 1017.7 |
| 20260906013922 | 82 | 55 | 0.9 | 1.7 | 0.00 | 0.00 | 0.00 | 36 | 1017.8 |
| 20260906013418 | 83 | 257 | 2.6 | 2.6 | 0.00 | 0.00 | 0.00 | 36 | 1017.6 |
| 20260906012913 | 83 | 36 | 4.3 | 6.1 | 0.00 | 0.00 | 0.00 | 36 | 1017.7 |
| 20260906012408 | 83 | 31 | 0.9 | 0.9 | 0.00 | 0.00 | 0.00 | 36 | 1017.7 |
| 20260906011907 | 84 | 38 | 1.7 | 2.6 | 0.00 | 0.00 | 0.00 | 35 | 1018.1 |
| 20260906011402 | 85 | 39 | 2.6 | 5.2 | 0.00 | 0.00 | 0.00 | 33 | 1017.7 |
| 20260906010858 | 86 | 339 | 3.5 | 5.2 | 0.00 | 0.00 | 0.00 | 32 | 1017.4 |
| 20260906010354 | 86 | 40 | 1.7 | 2.6 | 0.00 | 0.00 | 0.00 | 32 | 1017.5 |
| 20260906005849 | 87 | 58 | 2.6 | 3.5 | 0.00 | 0.00 | 0.00 | 31 | 1017.3 |
| 20260906005349 | 89 | 71 | 0.9 | 0.9 | 0.00 | 0.00 | 0.00 | 31 | 1017.4 |
| 20260906004847 | 89 | 356 | 1.7 | 1.7 | 0.00 | 0.00 | 0.00 | 29 | 1017.3 |
| 20260906004342 | 89 | 80 | 0.0 | 0.0 | 0.00 | 0.00 | 0.00 | 29 | 1017.1 |
| 20260906003837 | 90 | 85 | 0.0 | 0.0 | 0.00 | 0.00 | 0.00 | 29 | 1017.3 |
| 20260906003332 | 90 | 89 | 0.0 | 0.0 | 0.00 | 0.00 | 0.00 | 28 | 1017.3 |
| 20260906002833 | 91 | 75 | 0.0 | 0.0 | 0.00 | 0.00 | 0.00 | 28 | 1017.1 |
| 20260906002332 | 91 | 84 | 0.9 | 0.9 | 0.00 | 0.00 | 0.00 | 28 | 1017.3 |
| 20260906001829 | 92 | 85 | 0.9 | 0.9 | 0.00 | 0.00 | 0.00 | 27 | 1017.0 |
| 20260906001324 | 92 | 21 | 0.9 | 1.7 | 0.00 | 0.00 | 0.00 | 27 | 1017.0 |
| 20260906000819 | 92 | 98 | 0.0 | 0.9 | 0.00 | 0.00 | 0.00 | 28 | 1017.1 |
| 20260906000314 | 92 | 70 | 0.0 | 0.0 | 0.00 | 0.00 | 0.00 | 30 | 1017.0 |
| 20260905235814 | 92 | 34 | 0.9 | 1.7 | 0.00 | 0.00 | 0.00 | 31 | 1017.0 |
| 20260905235314 | 93 | 69 | 0.0 | 0.0 | 0.00 | 0.00 | 0.00 | 33 | 1017.1 |
| 20260905234809 | 93 | 85 | 0.0 | 0.0 | 0.00 | 0.00 | 0.00 | 32 | 1016.9 |
| 20260905234304 | 93 | 86 | 0.9 | 1.7 | 0.00 | 0.00 | 0.00 | 31 | 1016.9 |
| 20260905233800 | 94 | 69 | 0.9 | 0.9 | 0.00 | 0.00 | 0.00 | 31 | 1016.9 |
| 20260905233259 | 94 | 79 | 0.0 | 0.0 | 0.00 | 0.00 | 0.00 | 31 | 1017.0 |
| 20260905232759 | 94 | 135 | 1.7 | 3.5 | 0.00 | 0.00 | 0.00 | 31 | 1017.0 |
| 20260905232255 | 95 | 93 | 0.0 | 0.0 | 0.00 | 0.00 | 0.00 | 30 | 1016.8 |
| 20260905231750 | 95 | 85 | 0.0 | 0.9 | 0.00 | 0.00 | 0.00 | 30 | 1016.7 |
| 20260905231246 | 95 | 70 | 0.9 | 2.6 | 0.00 | 0.00 | 0.00 | 29 | 1016.7 |
| 20260905230742 | 95 | 103 | 0.9 | 0.9 | 0.00 | 0.00 | 0.00 | 30 | 1016.8 |
| 20260905230239 | 96 | 134 | 0.9 | 1.7 | 0.00 | 0.00 | 0.00 | 29 | 1016.8 |
| 20260905225739 | 96 | 90 | 0.9 | 0.9 | 0.00 | 0.00 | 0.00 | 29 | 1016.5 |
| 20260905225235 | 97 | 49 | 1.7 | 2.6 | 0.00 | 0.00 | 0.00 | 28 | 1016.6 |
| 20260905224733 | 97 | 101 | 1.7 | 2.6 | 0.00 | 0.00 | 0.00 | 28 | 1016.6 |
| 20260905224229 | 99 | 116 | 0.9 | 1.7 | 0.00 | 0.00 | 0.00 | 26 | 1016.5 |
| 20260905223726 | 100 | 99 | 0.9 | 1.7 | 0.00 | 0.00 | 0.00 | 24 | 1016.6 |
| 20260905223222 | 100 | 75 | 0.0 | 0.0 | 0.00 | 0.00 | 0.00 | 25 | 1016.7 |
| 20260905222718 | 99 | 85 | 0.9 | 0.9 | 0.00 | 0.00 | 0.00 | 25 | 1016.5 |
| 20260905222216 | 98 | 94 | 0.0 | 0.0 | 0.00 | 0.00 | 0.00 | 24 | 1016.6 |
| 20260905221713 | 98 | 75 | 0.0 | 0.0 | 0.00 | 0.00 | 0.00 | 23 | 1016.9 |
| 20260905221209 | 97 | 81 | 0.0 | 0.0 | 0.00 | 0.00 | 0.00 | 24 | 1016.8 |
| 20260905220705 | 98 | 93 | 0.0 | 0.0 | 0.00 | 0.00 | 0.00 | 24 | 1016.9 |
| 20260905220201 | 98 | 107 | 0.0 | 0.9 | 0.00 | 0.00 | 0.00 | 24 | 1016.9 |
| 20260905215700 | 97 | 85 | 0.0 | 0.9 | 0.00 | 0.00 | 0.00 | 24 | 1016.7 |
| 20260905215156 | 98 | 30 | 0.0 | 0.0 | 0.00 | 0.00 | 0.00 | 23 | 1017.0 |
| 20260905214652 | 98 | 95 | 2.6 | 3.5 | 0.00 | 0.00 | 0.00 | 23 | 1017.1 |
| 20260905214147 | 97 | 59 | 0.9 | 1.7 | 0.00 | 0.00 | 0.00 | 25 | 1017.3 |
| 20260905213642 | 96 | 113 | 0.0 | 0.0 | 0.00 | 0.00 | 0.00 | 24 | 1017.1 |
| 20260905213137 | 98 | 101 | 0.9 | 0.9 | 0.00 | 0.00 | 0.00 | 25 | 1017.4 |
| 20260905212632 | 96 | 89 | 0.0 | 0.9 | 0.00 | 0.00 | 0.00 | 24 | 1017.4 |